{"data":{"norad_id":61640,"intl_designator":"2024-191V","name":"STARLINK-32339","alt_names":[],"object_type":"PAYLOAD","status":"ACTIVE","operator":null,"country":"US","launch_date":"2024-10-23","launch_site_code":"AFETR","launch_vehicle":null,"mission":null,"orbit_class":"UNKNOWN","rcs_meters":null,"size_class":null,"mass_kg":null,"dimensions":null,"purposes":["comms"],"wikipedia_slug":null,"has_3d_model":false,"image_url":null,"decayed_at":null,"tle_current":{"epoch":"2026-09-20T00:54:48.205152Z","epoch_age_seconds":231926,"freshness":"STALE","line1":"1 61640U 24191V   26263.03805793 -.00000598  00000+0 -12222-4 0  9994","line2":"2 61640  43.0034 136.5675 0001004 275.7512  84.3225 15.27573000107259","mean_motion":15.27573,"eccentricity":0.0001004,"inclination_deg":43.0034,"raan_deg":136.5675,"arg_perigee_deg":275.7512,"mean_anomaly_deg":84.3225,"bstar":-1.2222e-5,"rev_number":10725,"period_min":94.267180684655,"perigee_km":482.38119144945,"apogee_km":483.75892182642,"semimajor_km":6861.2070566379,"source":"CELESTRAK","updated_at":"2026-09-22T09:00:49.398745Z"}}}